[[{"header":{"parameterUnit":"m.s-1","parameterCategory":1,"la1":30.2991,"la2":30.254,"lo1":-89.0895,"lo2":-89.0444,"dy":0.0017,"dx":0.0017,"nx":28,"ny":28,"refTime":"2024-02-13T09:00:00:Z","depth":0,"parameterNumber":2,"parameterNumberName":"U-component_of_WINDS"},"data":[0,0,0,0,0,0,0,0,0,0,0,0,0,0,0,0,0,0,0,0,0,0,0,0,0,0,0,0,0,0,0,0,0,0,0,0,0,0,0,0,0,0,0,0,0,0,0,0,0,0,0,0,0,0,0,0,0,0,-0.0726,-0.0726,0,-0.0718,-0.0718,-0.0718,-0.0718,-0.0718,-0.0718,-0.0718,-0.071,-0.0709,-0.0709,0,0,0,0,0,0,0,0,0,0,0,0,0,-0.0743,-0.0743,-0.0726,-0.0726,-0.0726,-0.0718,-0.0718,-0.0718,-0.0718,-0.0718,-0.0718,-0.0718,-0.071,-0.0709,-0.0709,0,0,0,0,0,0,0,0,0,0,0,0,0,-0.0735,-0.0742,-0.0726,-0.0725,-0.0725,-0.0718,-0.0718,-0.0718,-0.0718,-0.0718,-0.0718,-0.0718,-0.071,-0.0709,-0.0709,-0.0702,0,0,-0.0707,-0.0707,0,0,0,0,0,0,0,0,-0.0736,-0.0735,-0.0725,-0.0725,-0.0725,-0.0719,-0.0721,-0.0713,-0.0718,-0.0721,-0.0718,-0.0719,-0.0713,-0.0712,-0.071,-0.0702,-0.0702,-0.0707,-0.0707,-0.0707,-0.0707,0,0,0,0,0,0,0,-0.0736,-0.0735,-0.0723,-0.0725,-0.0725,-0.0725,-0.0724,-0.0719,-0.0716,-0.072,-0.072,-0.0719,-0.0713,-0.0711,-0.071,-0.0702,-0.0707,-0.0707,-0.0707,-0.0706,-0.0689,-0.0689,0,0,0,0,0,0,-0.0737,-0.0735,-0.0723,-0.0723,-0.0731,-0.0725,-0.0724,-0.0721,-0.0716,-0.0715,-0.0719,-0.0719,-0.0711,-0.071,-0.071,-0.0702,-0.0707,-0.0706,-0.0706,-0.0689,-0.0689,-0.0689,0,0,0,0,0,0,-0.0737,-0.0736,-0.0724,-0.0729,-0.0728,-0.0724,-0.0721,-0.0721,-0.0719,-0.0715,-0.0714,-0.0718,-0.0711,-0.071,-0.0704,-0.0702,-0.0706,-0.0706,-0.0689,-0.0689,-0.0689,-0.0687,0,0,0,0,0,0,-0.0738,-0.0736,-0.0733,-0.0729,-0.0727,-0.0718,-0.0721,-0.072,-0.0718,-0.0718,-0.0713,-0.0713,-0.0711,-0.0705,-0.0704,-0.0701,-0.0705,-0.0689,-0.0689,-0.0689,-0.0687,-0.0687,-0.0686,0,0,0,0,0,-0.0738,-0.0733,-0.0733,-0.0731,-0.0724,-0.0718,-0.0717,-0.0716,-0.0717,-0.0715,-0.0713,-0.0713,-0.0702,-0.0705,-0.0703,-0.07,-0.069,-0.0689,-0.0689,-0.0687,-0.0687,-0.0686,0,0,0,0,0,0,-0.0736,-0.0732,-0.0732,-0.0725,-0.0722,-0.0718,-0.0715,-0.0715,-0.0711,-0.0711,-0.071,-0.0709,-0.0703,-0.0701,-0.0704,-0.0694,-0.0696,-0.0696,-0.0696,-0.0695,-0.0695,-0.0695,-0.0705,0,0,0,0,0,-0.0735,-0.0731,-0.0727,-0.0721,-0.072,-0.0718,-0.0715,-0.0715,-0.0711,-0.071,-0.0707,-0.0704,-0.07,-0.0698,-0.0694,-0.0687,-0.0687,-0.0685,-0.0684,-0.0684,-0.0683,-0.068,-0.068,-0.0688,-0.0688,-0.0688,0,0,-0.0732,-0.0729,-0.0727,-0.0721,-0.0718,-0.0714,-0.0716,-0.0712,-0.0709,-0.0709,-0.0704,-0.0702,-0.0698,-0.0692,-0.0689,-0.069,-0.0681,-0.0683,-0.0683,-0.0682,-0.068,-0.0679,-0.0678,-0.0687,-0.0687,-0.0687,0,0,-0.0725,-0.0722,-0.0717,-0.0715,-0.0712,-0.071,-0.0709,-0.0706,-0.0705,-0.0699,-0.0699,-0.0696,-0.0689,-0.0687,-0.0685,-0.0678,-0.0679,-0.0677,-0.0674,-0.0672,-0.0671,-0.0671,-0.0669,-0.0668,-0.0677,-0.0677,-0.0677,0,-0.0722,-0.0716,-0.0715,-0.0711,-0.0708,-0.0709,-0.0704,-0.0702,-0.0697,-0.0696,-0.0697,-0.0689,-0.0687,-0.0681,-0.0679,-0.0677,-0.0676,-0.0677,-0.0671,-0.0671,-0.067,-0.0668,-0.0668,-0.0677,-0.0677,-0.0677,-0.0677,0,-0.0712,-0.0708,-0.0705,-0.0701,-0.0698,-0.0694,-0.0692,-0.069,-0.069,-0.0689,-0.0684,-0.0681,-0.0677,-0.0676,-0.0675,-0.067,-0.0671,-0.0672,-0.0673,-0.0669,-0.0668,-0.0667,-0.0676,-0.0676,-0.0676,-0.0676,0,0,-0.0703,-0.0699,-0.0698,-0.0697,-0.0693,-0.069,-0.0686,-0.0682,-0.0681,-0.0678,-0.0675,-0.0669,-0.0671,-0.0668,-0.0668,-0.0665,-0.0661,-0.0667,-0.0667,-0.0666,-0.0656,-0.0655,-0.0654,-0.0662,-0.0661,-0.0661,-0.0656,0,-0.0695,-0.0688,-0.0688,-0.0681,-0.0678,-0.0679,-0.0676,-0.0673,-0.0673,-0.067,-0.0669,-0.0665,-0.0667,-0.0666,-0.0663,-0.0662,-0.0659,-0.0663,-0.0659,-0.0659,-0.0659,-0.0653,-0.0652,-0.0647,-0.0655,-0.0655,-0.0655,0,-0.0686,-0.0683,-0.0676,-0.0674,-0.0673,-0.067,-0.0667,-0.0664,-0.0662,-0.0662,-0.066,-0.066,-0.0656,-0.0659,-0.0654,-0.0657,-0.0655,-0.0655,-0.0654,-0.0654,-0.0656,-0.0652,-0.0645,-0.0645,-0.0654,-0.0654,-0.0654,0,-0.068,-0.0674,-0.067,-0.0669,-0.0666,-0.0664,-0.0663,-0.0661,-0.066,-0.0657,-0.0656,-0.0653,-0.0652,-0.065,-0.065,-0.0651,-0.0645,-0.0647,-0.0645,-0.0645,-0.0643,-0.0643,-0.0636,-0.0642,-0.0642,-0.0642,-0.0642,0,-0.0671,-0.0667,-0.0667,-0.0664,-0.066,-0.066,-0.0656,-0.0655,-0.0654,-0.0651,-0.0652,-0.065,-0.065,-0.0647,-0.0647,-0.0643,-0.0643,-0.0643,-0.0642,-0.0642,-0.0642,-0.0641,-0.0642,-0.0642,-0.0642,-0.0642,-0.0642,0,-0.0663,-0.0663,-0.0659,-0.0657,-0.0657,-0.0654,-0.0653,-0.065,-0.065,-0.0647,-0.0646,-0.0646,-0.0643,-0.0643,-0.0639,-0.0639,-0.0635,-0.0636,-0.0636,-0.0636,-0.0634,-0.0634,-0.0625,-0.0624,-0.0631,-0.0631,-0.0631,0,-0.0658,-0.0655,-0.0654,-0.0652,-0.0651,-0.0649,-0.0647,-0.0648,-0.0646,-0.0644,-0.0642,-0.064,-0.0638,-0.0634,-0.0633,-0.0631,-0.0631,-0.0628,-0.0631,-0.0631,-0.0631,-0.0631,-0.0631,-0.0628,-0.0627,-0.0627,-0.0627,0,-0.0649,-0.0649,-0.0647,-0.0645,-0.0643,-0.0642,-0.064,-0.0639,-0.0639,-0.0637,-0.0635,-0.0634,-0.0631,-0.0629,-0.0627,-0.0626,-0.0627,-0.0627,-0.0626,-0.0626,-0.0626,-0.0626,-0.0635,-0.0627,-0.0627,-0.0627,-0.0627,-0.0627,-0.0642,-0.064,-0.0639,-0.0637,-0.0636,-0.0635,-0.0633,-0.0632,-0.063,-0.0628,-0.0629,-0.0626,-0.0625,-0.0623,-0.0622,-0.062,-0.0621,-0.062,-0.062,-0.062,-0.062,-0.0627,-0.062,-0.062,-0.062,-0.062,-0.062,0,-0.0633,-0.0633,-0.0631,-0.0629,-0.0628,-0.0629,-0.0628,-0.0626,-0.0624,-0.0623,-0.0622,-0.0619,-0.0618,-0.0617,-0.0616,-0.0614,-0.0615,-0.0614,-0.0614,-0.0614,-0.0619,-0.062,-0.0614,-0.0614,-0.0614,-0.0614,-0.0614,-0.0614,-0.0628,-0.0625,-0.0625,-0.0622,-0.0621,-0.0619,-0.0618,-0.0617,-0.0617,-0.0614,-0.0613,-0.0613,-0.0612,-0.0611,-0.061,-0.061,-0.0609,-0.0608,-0.0608,-0.0613,-0.0613,-0.0614,-0.0615,-0.0608,-0.0608,-0.0603,-0.0603,-0.0603]},{"header":{"parameterUnit":"m.s-1","parameterCategory":1,"la1":30.2991,"la2":30.254,"lo1":-89.0895,"lo2":-89.0444,"dy":0.0017,"dx":0.0017,"nx":28,"ny":28,"refTime":"2024-02-13T09:00:00:Z","depth":0,"parameterNumber":3,"parameterNumberName":"V-component_of_WINDS"},"data":[0,0,0,0,0,0,0,0,0,0,0,0,0,0,0,0,0,0,0,0,0,0,0,0,0,0,0,0,0,0,0,0,0,0,0,0,0,0,0,0,0,0,0,0,0,0,0,0,0,0,0,0,0,0,0,0,0,0,0.1148,0.1149,0,0.127,0.1271,0.1272,0.1295,0.1295,0.1294,0.1293,0.1411,0.1415,0.1419,0,0,0,0,0,0,0,0,0,0,0,0,0,0.093,0.0934,0.1148,0.1149,0.1151,0.1269,0.1271,0.1273,0.1296,0.1294,0.1293,0.1292,0.141,0.1415,0.142,0,0,0,0,0,0,0,0,0,0,0,0,0,0.1036,0.0936,0.1148,0.1177,0.1181,0.1269,0.1271,0.1273,0.1296,0.1294,0.1293,0.1292,0.1408,0.1414,0.142,0.1486,0,0,0.1439,0.1442,0,0,0,0,0,0,0,0,0.103,0.1043,0.1171,0.1175,0.1179,0.1266,0.1238,0.1344,0.1296,0.1252,0.1293,0.1291,0.1364,0.1373,0.1399,0.1492,0.1497,0.1439,0.1443,0.1446,0.1447,0,0,0,0,0,0,0,0.1022,0.1038,0.1196,0.1173,0.1178,0.1182,0.1196,0.1258,0.1314,0.1256,0.1258,0.1272,0.1366,0.1393,0.1402,0.1499,0.1439,0.1445,0.1448,0.1451,0.1652,0.1654,0,0,0,0,0,0,0.1011,0.1032,0.1192,0.1199,0.11,0.1187,0.1202,0.1239,0.1314,0.1324,0.1273,0.1273,0.1384,0.1395,0.1406,0.1489,0.1446,0.1451,0.1455,0.165,0.1652,0.1654,0,0,0,0,0,0,0.1006,0.1025,0.1187,0.1117,0.1138,0.1193,0.1234,0.1243,0.127,0.1327,0.1336,0.1291,0.1383,0.1398,0.1467,0.1493,0.1454,0.146,0.1648,0.1651,0.1653,0.1655,0,0,0,0,0,0,0.0999,0.1023,0.105,0.1117,0.1141,0.1247,0.1236,0.1246,0.1281,0.1282,0.1347,0.1356,0.1383,0.1458,0.1473,0.1501,0.1464,0.1646,0.165,0.1653,0.1652,0.1657,0.1661,0,0,0,0,0,0.0992,0.1044,0.1051,0.107,0.1176,0.1248,0.1262,0.1294,0.1283,0.131,0.1347,0.1354,0.1488,0.1465,0.1482,0.1512,0.1645,0.1649,0.1652,0.165,0.1656,0.1661,0,0,0,0,0,0,0.0975,0.1053,0.1062,0.1137,0.1187,0.1252,0.1287,0.1299,0.135,0.1348,0.1384,0.1398,0.1465,0.1496,0.1468,0.158,0.1566,0.1573,0.1558,0.1564,0.1568,0.1559,0.1469,0,0,0,0,0,0.0981,0.1035,0.1099,0.116,0.1184,0.1231,0.1264,0.1285,0.1336,0.1356,0.1398,0.1446,0.1499,0.1533,0.1585,0.1657,0.1671,0.1686,0.169,0.1694,0.1699,0.174,0.1747,0.1667,0.1667,0.1667,0,0,0.0992,0.1041,0.1073,0.1158,0.1198,0.1252,0.1248,0.1305,0.1345,0.1364,0.1433,0.1465,0.152,0.1592,0.1625,0.1619,0.1725,0.1698,0.17,0.1705,0.1745,0.1752,0.1759,0.167,0.1669,0.1669,0,0,0.1041,0.1084,0.1139,0.1181,0.1243,0.1274,0.1287,0.1352,0.1375,0.1444,0.146,0.1507,0.1598,0.1637,0.1669,0.1734,0.1742,0.1749,0.1771,0.181,0.1816,0.1822,0.1845,0.1853,0.1755,0.1755,0.1755,0,0.1047,0.113,0.1166,0.1223,0.1259,0.1281,0.1337,0.1375,0.145,0.1474,0.1466,0.1582,0.1621,0.1701,0.1717,0.1742,0.1758,0.1742,0.1813,0.1819,0.1825,0.1847,0.1856,0.1755,0.1755,0.1755,0.1755,0,0.1134,0.1192,0.1229,0.1304,0.1344,0.14,0.1443,0.1479,0.1497,0.1528,0.1598,0.1646,0.1709,0.1729,0.1746,0.1813,0.1807,0.1806,0.1792,0.1832,0.1854,0.1863,0.1756,0.1756,0.1756,0.1756,0,0,0.1175,0.127,0.1283,0.1318,0.1388,0.1433,0.1489,0.1552,0.1583,0.1634,0.1682,0.1759,0.1758,0.1795,0.1815,0.185,0.1898,0.1844,0.1846,0.1853,0.1974,0.1975,0.1984,0.1904,0.1906,0.1907,0.197,0,0.1232,0.1337,0.1371,0.1456,0.151,0.1532,0.1581,0.1629,0.166,0.1708,0.1742,0.1796,0.1792,0.1814,0.1849,0.1885,0.1923,0.1881,0.1948,0.195,0.1933,0.1996,0.1996,0.2053,0.1978,0.198,0.1981,0,0.1313,0.1368,0.146,0.1525,0.1548,0.1592,0.1653,0.17,0.1754,0.1774,0.1815,0.1834,0.1892,0.1875,0.1956,0.1927,0.1956,0.1978,0.1981,0.1988,0.1968,0.2004,0.2072,0.208,0.1995,0.1993,0.1992,0,0.1334,0.143,0.1498,0.1527,0.1604,0.1635,0.1668,0.1721,0.1757,0.181,0.1833,0.1891,0.1922,0.1966,0.1999,0.1984,0.2077,0.2062,0.2094,0.2093,0.2113,0.2111,0.2186,0.2132,0.2131,0.2131,0.2131,0,0.1394,0.1449,0.1509,0.1551,0.1613,0.1651,0.1711,0.1745,0.1792,0.184,0.1862,0.1905,0.1947,0.1995,0.2021,0.2084,0.2098,0.2115,0.2121,0.2113,0.2111,0.2133,0.2129,0.2134,0.2133,0.2133,0.2132,0,0.1428,0.147,0.1546,0.1613,0.1632,0.1675,0.1732,0.1772,0.1805,0.1864,0.188,0.1931,0.1989,0.2027,0.2101,0.2118,0.2187,0.2192,0.2169,0.2172,0.2202,0.2199,0.2293,0.2307,0.2244,0.2244,0.2245,0,0.1463,0.1507,0.158,0.1615,0.1649,0.1704,0.1742,0.178,0.1818,0.1884,0.1916,0.1977,0.2027,0.212,0.2161,0.2218,0.2224,0.2254,0.2233,0.2224,0.2225,0.2222,0.2226,0.2257,0.2257,0.2258,0.2258,0,0.1522,0.1541,0.1596,0.1658,0.1703,0.1753,0.1803,0.183,0.1877,0.1918,0.198,0.2019,0.2096,0.2155,0.2216,0.2248,0.2261,0.2264,0.2275,0.2267,0.2252,0.2261,0.2179,0.2262,0.2262,0.2261,0.2261,0.2261,0.1558,0.1598,0.1656,0.1716,0.1759,0.1805,0.1847,0.1886,0.1938,0.2005,0.2024,0.2089,0.2142,0.2225,0.2258,0.2308,0.2304,0.2319,0.2323,0.2326,0.2326,0.2245,0.2319,0.2319,0.2319,0.2319,0.2319,0,0.1618,0.1657,0.1712,0.1783,0.183,0.184,0.1896,0.1934,0.1991,0.2041,0.2091,0.2161,0.2219,0.2266,0.2326,0.2356,0.2364,0.2371,0.2369,0.2376,0.2326,0.2312,0.2364,0.2364,0.2364,0.2364,0.2364,0.2364,0.1655,0.1723,0.1749,0.1839,0.1877,0.1942,0.1973,0.2015,0.2055,0.2134,0.2183,0.2215,0.2263,0.2326,0.238,0.2392,0.2412,0.2418,0.2431,0.2384,0.2379,0.2374,0.2361,0.2423,0.2423,0.2477,0.2477,0.2478]}]]